Other Surface Observations
Issued by NWS

Home | Current Version | Previous Version | Text Only | Print | Product List | Glossary On
Versions: 1 2 3 4 5 6 7 8 9 10 11 12 13 14 15 16 17 18 19 20 21 22 23 24 25 26 27 28 29 30 31 32 33 34 35 36 37 38 39 40 41 42 43 44 45 46 47 48 49 50
000
SXUS52 KTAE 311418
OSOTAE
OSOTAE
North Florida/South Alabama/Southwest Georgia Weather Roundup
National Weather Service Tallahassee Florida
1000 AM EDT TUE MAY 31 2016

Note: "fair" indicates few or no clouds below 12,000 feet with no
significant weather and/or obstructions to visibility.

!FLZ017-115-028-034-025-311500
...North Florida...

CITY           SKY/WX    TMP DP  RH WIND       PRES   REMARKS
TALLAHASSEE    MOSUNNY   81  71  71 CALM      29.96S
APALACHICOLA   PTSUNNY   82  77  84 NW3       29.96S HX  90
PERRY          SUNNY     82  74  74 W6        29.97F
CROSS CITY       N/A     84  72  67 W8        29.97R
JACKSONVILLE   MOSUNNY   83  70  64 VRB5      29.94S
$$

!FLZ112-006-005-002-011-311500
...Florida Panhandle...

CITY           SKY/WX    TMP DP  RH WIND       PRES   REMARKS
MARIANNA       SUNNY     81  71  71 CALM      29.95R
BONIFAY        FAIR      81  69  67 W3        29.97R
PANAMA CITY NW FAIR      82  71  69 W7        29.95S
TYNDALL AFB    NOT AVBL
TYND DRONE APT PTSUNNY   81  77  89 W8        29.96S
DE FUNIAK SPR  FAIR      81  68  64 CALM      29.97S
EGLIN AFB      MOSUNNY   81  71  71 NW1       29.96R
DESTIN         MOSUNNY   84  74  71 NW5       29.96R HX  91
HURLBURT       SUNNY     82  72  70 VRB1      29.95S
CRESTVIEW      SUNNY     83  67  58 N3        29.97S
PENSACOLA      SUNNY     84  70  62 VRB6      29.96R
$$

!ALZ063-066-311500
...South Alabama...

CITY           SKY/WX    TMP DP  RH WIND       PRES   REMARKS
DOTHAN         SUNNY     84  66  54 NW6       30.00R
OZARK CAIRNS   SUNNY     83  69  63 N5        29.96R
FT RUCKER HELI NOT AVBL
RUCKER HELI 3  FAIR      83  69  61 N3        29.98R
RUCKER HELI 2  NOT AVBL
FLORALA APT    SUNNY     82  68  62 NE3       29.97S
ANDALUSIA      MOSUNNY   87  68  52 N3        29.96R HX  90
TROY           SUNNY     85  69  58 N3        29.97S
EUFALA         FAIR      84  67  56 CALM      29.96R
MOBILE         CLOUDY    81  71  71 NW6       29.97R
$$

!GAZ120>161-311500
...Southwest and South Central Georgia...

CITY           SKY/WX    TMP DP  RH WIND       PRES   REMARKS
THOMASVILLE    FAIR      81  70  69 CALM      29.97S
BAINBRIDGE     SUNNY     81  70  69 CALM      29.96S
MOODY AFB      SUNNY     84  67  57 VRB1      29.94S
VALDOSTA       SUNNY     81  70  69 VRB3      29.96R
MOULTRIE       SUNNY     82  68  61 CALM      29.97S
BLAKELY        SUNNY     86  70  58 CALM      29.96S HX  90
ALBANY         SUNNY     84  66  54 N6        29.97S
TIFTON         FAIR      83  66  57 NW5       29.96R
FITZGERALD     FAIR      84  67  57 CALM      29.98S
CORDELE        FAIR      83  66  55 NE3       29.96F
AMERICUS       FAIR      81  61  50 N3        29.98S
HOMERVILLE     FAIR      81  70  69 NW6       29.95F
$$

!GMZ750-755-770-775-311500
...Coastal and Buoy Obs...

STATION/POSITION TIME  TEMP    WIND        PRES    VSBY  WAVE
                       AIR SEA DIR/SP/G                  HT/PER
                 (UTC) (F)     (DEG/KT/KT) (MB)    (MI)  (FT/S)
KEATON BEACH     1400   81     270/  5/  7 1014.7R
CEDAR KEY        1400   81     300/  7/  9 1015.3R
C TOWER          1400   79     260/  5/  5 1015.6R
APALACHICOLA BUO 1350   79 80  310/  4/  6 1015.0F         1
PANAMA CITY BUOY 1350   80 81  310/  2/  4 1015.4R         1
MOBILE BUOY      1400   80 81  310/  6/  8 1014.9R
ORANGE BCH AL BU 1350   79 82              1013.9R         1/ 3
$$




USA.gov is the U.S. government's official web portal to all federal, state and local government web resources and services.